Location: Alphen aan den Rijn
(52.1277°N, 4.6689°E)
Time: 04:06:11
(UTC+02:00)

Envisat - Visible Passes

Search period start: 19 August 2018 00:00
Search period end: 29 August 2018 00:00
Orbit: 764 x 766 km, 98.2° (Epoch: 18 August)

Date Brightness Start Highest point End Pass type
(mag) Time Alt. Az. Time Alt. Az. Time Alt. Az.
19 Aug 5.6 21:59:00 10° SW 22:02:43 20° W 22:06:28 10° NW visible
21 Aug 5.9 22:26:32 10° WSW 22:28:40 12° W 22:30:49 10° WNW visible
22 Aug 5.3 21:47:19 10° SW 21:51:25 24° W 21:55:34 10° NW visible
24 Aug 5.8 22:14:21 10° WSW 22:17:19 15° W 22:20:18 10° NW visible
25 Aug 5.0 21:35:44 10° SSW 21:40:09 29° W 21:44:36 10° NNW visible
27 Aug 5.6 22:02:28 10° SW 22:06:00 19° W 22:09:34 10° NW visible
28 Aug 4.7 21:24:14 10° SSW 21:28:53 36° W 21:33:34 10° NNW visible
